STARLINK-5908, 55951

Orbit data source: Space-Track

STARLINK-5908, 55951 is a payload satellite owned by SpaceX/Seattle (US) in LEO that was launched on Fri, 17 Mar 2023 UTC via an FALCON 9 launch vehicle from the Air Force Western Test Range (AFWTR). Payload-class satellites include a variety of spacecraft equipped with specific instruments for various scientific and technological missions. These include communications satellites like Starlink; space stations such as the ISS; scientific satellites like the Hubble; Earth observation satellites from companies like Planet Labs, Umbra, and HawkEye 360; GPS; miniature CubeSats for education and research; and military/defense satellites.

Loading next visibility...
Identifier
55951, 2023-037AP
Orbit
LEO
Country
Flag of USUS
Related business
Manufacturer
SpaceX/Seattle
Mission
Operational Commercial Communications
Bus & Motor
STARLINK, Unknown motor
Mass
305 kg wet, ~290 kg dry
Launch date (UTC)
2023-03-17 (3 years ago)
Launch vehicle
FALCON 9
Launch site
Air Force Western Test Range (AFWTR)
Object type
Payload
Rocket body
Debris
Shape & HBR
Box + 1 Pan, 10.1 m
Radar Cross Section
11.087 m², Large (>1 m²)

Expand to show TLE details & history
Last TLE update: 9 hours ago

TLE from 9 hours ago
0 STARLINK-5908
1 55951U 23037AP  25349.83201471  .00000847  00000-0  78748-4 0  9996
2 55951  69.9989 135.7072 0003071 271.4757  88.6050 14.98345666151428
Epoch: 2025-12-15T19:58Z
TLE epoch observation values (Epoch: 2025-12-15T19:58:06.070Z)
Latitude
-0.00008°
Longitude
111.45695°
Altitude
574.38 km
Speed
7.574 km/s
True Right ascension
09h 02m 49s
True Declination
0° 00' 00"
Sunlit
Object was in full shadow at epoch
Visualization orbit readout
Latitude
Unknown
Longitude
Unknown
Altitude
Unknown
Speed
Unknown
Apparent Right ascension
Unknown
Apparent Declination
Unknown
Sunlit
N/A
Visualization observer readout
Local Sidereal Time
03:10:44
Azimuth
Unknown
Elevation
Unknown
Doppler factor
Unknown
Orbital elements
Apogee altitude
572.09 km
Perigee altitude
567.822 km
Semi-major axis
6,948.093 km
Eccentricity
0.00031
Inclination
69.9989°
RAAN
135.7072°
Arg. of periapsis
271.4757°
True anomaly
88.64018°
Mean anomaly
88.605°
Eccentric anomaly
88.62259°
Mean motion
3.74753 °/min
Orbital period
96.06 mins
BSTAR
0.000078748
Loading maneuver chart data...
Computing Atmospheric mass density...
Loading historical data...
Loading historical data...
Loading historical data...
Loading historical data...
Loading historical data...
Loading historical data...
Loading historical data...

Documentation

Showing up to 5 results
|